Pagrindinis puslapis
METAR-TAF:

METAR-TAF

Oro uostai :

Kramfors, Švedija

platuma: 63-03N, ilguma: 017-46E, Aukštis: 10 m

Dabartinis oras

Ataskaita buvo paskelbta 15 minutes, ne 20:20 UTC
Vėjas 5 kt iš Šiaurės/Šiaurės Vakarų
Temperatūra 11°C
Drėgmė 76%
Slėgis 1000 hPa
Matomumas 10 km arba daugiau

METAR: ESNK 232020Z AUTO 34005KT 9999 OVC040/// 11/07 Q1000

Laikas: 22:35 (20:35 UTC)


TAF: trūkstamas

Orai ataskaitas ir orų prognozės (METAR, TAF).

turimą stotys yra geltonos ir raudonos taškus žemėlapyje.

Perkelti pele per norėdami pamatyti stoties vardą.

Tada spustelėkite, norėdami matyti oro stebėjimo ir prognozės.

Norėdami pakeisti žemėlapį: spustelėkite ant žalios mygtukų su juodo kryžiaus žemyn,; žalią mygtuką su brūkšneliu, jei norite nutolinti; arba žalių rodyklių gretimoms žemėlapius.


METAR-TAF: